Flag for USA

Past Weather in 46°11'25.3"N, 123°51'32.9"W, USA — Yesterday and Last 2 Weeks

Currently: 48 °F. Fog. (Weather station: Astoria Regional Airport, USA). See more current weather

Past Weather in 46°11'25.3"N, 123°51'32.9"W — Graph

°F

46°11'25.3"N, 123°51'32.9"W Temperature Yesterday

Maximum temperature yesterday: 54 °F (at 1:55 pm)
Minimum temperature yesterday: 39 °F (at 12:55 am)
Average temperature yesterday: 46 °F

High & Low Weather Summary for the Past Weeks

 TemperatureHumidityPressure
High58 °F (Feb 23, 2:55 pm)100% (Feb 12, 11:36 pm)30.32 "Hg (Feb 12, 11:36 pm)
Low34 °F (Feb 14, 12:55 am)50% (Feb 16, 11:55 pm)29.57 "Hg (Feb 15, 12:11 am)
Average46 °F86%29.99 "Hg
* Reported Feb 10 3:55 am — Feb 25 3:55 am, 46°11'25.3"N, 123°51'32.9"W. Weather by CustomWeather, © 2024

Note: Actual official high and low records may vary slightly from our data, if they occured in-between our weather recording intervals... More about our weather records

46°11'25.3"N, 123°51'32.9"W Weather History for the Previous 24 Hours

Scroll right to see more
 ConditionsComfort  
Time TempWeatherWind HumidityBarometerVisibility
3:55 am
Sun, Feb 25
48 °FLight rain. Fog.8 mph96%30.01 "Hg2 mi
3:30 am48 °FLight rain. Fog.7 mph96%30.02 "Hg2 mi
3:20 am48 °FFog.6 mph96%30.03 "Hg3 mi
3:13 am48 °FLight rain. Fog.7 mph96%30.03 "Hg2 mi
3:02 am48 °FLight rain. Fog.6 mph96%30.03 "Hg2 mi
1:55 am49 °FMostly cloudy.9 mph93%30.05 "Hg7 mi
1:03 am49 °FLight rain. Fog.8 mph97%30.07 "Hg5 mi
12:55 am49 °FOvercast.6 mph97%30.06 "Hg8 mi
11:55 pm
Sat, Feb 24
49 °FMostly cloudy.7 mph93%30.07 "Hg10 mi
11:10 pm49 °FMostly cloudy.6 mph93%30.08 "Hg10 mi
10:55 pm49 °FLight rain. Fog.8 mph93%30.08 "Hg3 mi
10:32 pm49 °FLight rain. Fog.5 mph93%30.09 "Hg3 mi
9:55 pm49 °FLight rain. Fog.6 mph93%30.09 "Hg5 mi
9:42 pm49 °FMostly cloudy.6 mph93%30.10 "Hg10 mi
8:55 pm49 °FLight rain. Fog.7 mph93%30.10 "Hg3 mi
8:15 pm48 °FLight rain. Fog.7 mph93%30.11 "Hg5 mi
8:07 pm48 °FLight rain. Fog.5 mph93%30.11 "Hg2 mi
7:55 pm48 °FFog.6 mph93%30.11 "Hg4 mi
6:55 pm49 °FOvercast.7 mph84%30.12 "Hg6 mi
5:55 pm50 °FOvercast.5 mph80%30.11 "Hg10 mi
4:55 pm50 °FMostly cloudy.6 mph80%30.13 "Hg10 mi
2:55 pm52 °FCloudy.8 mph69%30.15 "Hg10 mi
1:55 pm54 °FPartly sunny.6 mph72%30.16 "Hg10 mi
12:55 pm51 °FMostly cloudy.6 mph83%30.19 "Hg10 mi
11:55 am48 °FMostly cloudy.No wind89%30.20 "Hg10 mi
11:23 am48 °FMore clouds than sun.3 mph93%30.21 "Hg10 mi
10:55 am47 °FLight rain. Mostly cloudy.3 mph90%30.21 "Hg10 mi
10:32 am47 °FLight rain. Fog.7 mph90%30.21 "Hg3 mi
10:12 am49 °FMostly cloudy.No wind90%30.20 "Hg10 mi
9:55 am48 °FOvercast.3 mph93%30.20 "Hg10 mi
8:55 am44 °FOvercast.3 mph89%30.21 "Hg9 mi
7:55 am43 °FOvercast.No wind93%30.20 "Hg10 mi
7:21 am43 °FMostly cloudy.3 mph93%30.20 "Hg10 mi
6:55 am43 °FOvercast.5 mph93%30.20 "Hg10 mi
5:55 am41 °FPassing clouds.3 mph96%30.21 "Hg10 mi
5:14 am42 °FPassing clouds.3 mph92%30.22 "Hg10 mi
4:55 am43 °FPassing clouds.5 mph93%30.21 "Hg10 mi
Weather by CustomWeather, © 2024

See weather overview